OBJECT AG, 59128

Orbit data source: Space-Track

You're viewing an Uncataloged Satellite

Recently launched and/or uncataloged satellites may have evolving metadata. Metadata may include but not limited to: Owner, Maufacturer, Bus, Motor, and Mission.

OBJECT AG, 59128 is a satellite in SSO that was launched on Mon, 04 Mar 2024 UTC via an FALCON 9 launch vehicle from the Air Force Western Test Range (AFWTR). Unknown objects in Earth's orbit typically refer to objects detected orbiting the Earth but have not yet been identified or cataloged. These objects could be anything from previously untracked satellites, spent rocket stages, debris from satellite collisions, or even natural meteoroids temporarily captured by Earth's gravity.

Loading next visibility...
Identifier
59128, 2024-043AG
Orbit
SSO
Country
Flag of TBDTBD
Related business
None
Manufacturer
Unknown
Mission
Operational Commercial Technology
Bus & Motor
Unknown
Mass
Unknown
Launch date (UTC)
2024-03-04 (2 years ago)
Launch vehicle
FALCON 9
Launch site
Air Force Western Test Range (AFWTR)
Object type
Unknown
Shape & HBR
Box + 2 Pan, 0.1 m
Radar Cross Section
0.080 m², Large (>1 m²)

Expand to show TLE details & history
Last TLE update: 15 hours ago

TLE from 15 hours ago
0 OBJECT AG
1 59128U 24043AG  25311.26784832  .00010754  00000-0  39076-3 0  9995
2 59128  97.5374  81.2889 0009552 309.8004  50.2394 15.28423158 93175
Epoch: 2025-11-07T06:25Z
TLE epoch observation values (Epoch: 2025-11-07T06:25:42.094Z)
Latitude
-0.00001°
Longitude
-61.85075°
Altitude
479.436 km
Speed
7.628 km/s
True Right ascension
05h 25m 09s
True Declination
0° 00' 00"
Sunlit
Object was in full shadow at epoch
Visualization orbit readout
Latitude
Unknown
Longitude
Unknown
Altitude
Unknown
Speed
Unknown
Apparent Right ascension
Unknown
Apparent Declination
Unknown
Sunlit
N/A
Visualization observer readout
Local Sidereal Time
17:42:50
Azimuth
Unknown
Elevation
Unknown
Doppler factor
Unknown
Orbital elements
Apogee altitude
484.034 km
Perigee altitude
470.937 km
Semi-major axis
6,855.623 km
Eccentricity
0.00096
Inclination
97.5374°
RAAN
81.2889°
Arg. of periapsis
309.8004°
True anomaly
50.32361°
Mean anomaly
50.2394°
Eccentric anomaly
50.2815°
Mean motion
3.8236 °/min
Orbital period
94.15 mins
BSTAR
0.00039076
Loading maneuver chart data...
Computing Atmospheric mass density...
Loading historical data...
Loading historical data...
Loading historical data...
Loading historical data...
Loading historical data...
Loading historical data...
Loading historical data...

Documentation

Showing up to 5 results
|